STARLINK-1454, 45671

Orbit data source: Space-Track

STARLINK-1454, 45671 is a payload satellite owned by SpaceX/Seattle (US) in LEO that was launched on Thu, 04 Jun 2020 UTC via an FALCON 9 launch vehicle from the Air Force Eastern Test Range (AFETR). Payloads include a variety of satellites, spacecraft, and rockets equipped with specific instruments for various scientific and technological missions. These include communications satellites like Starlink; space stations such as the ISS; scientific satellites like the Hubble; Earth observation satellites from companies like Planet Labs, Umbra, and HawkEye 360; GPS; miniature CubeSats for education and research; and military/defense satellites.

Loading next visibility...
STARLINK-1454 details
Identifier
45671, 2020-035Q
Orbit
LEO
Last TLE update22 hours ago
Origin
Flag of USSpaceX/Seattle (US)
ManufacturerSpaceX/Seattle
MissionOperational Commercial Communications
Bus & MotorSTARLINK, Unknown motor
Mass260 kg wet, ~248 kg dry
Launch date (UTC)
2020-06-04 (5 years ago)
Launch vehicle
FALCON 9
Launch site
Air Force Eastern Test Range (AFETR)
Object type
Payload
Rocket body
Debris
Shape & HBRBox + 1 Pan, 8.86 m
Radar Cross Section13.562 m², Large (>1 m²)

Expand to show TLE details & history

TLE from 22 hours ago
0 STARLINK-1454
1 45671U 20035Q   24339.27216767  .00022874  00000-0  15485-2 0  9990
2 45671  53.0551 333.5131 0001606  77.2634 282.8535 15.06424685249329
Epoch: 2024-12-04T06:31Z
Definitive object data (Epoch: 2024-12-04T06:31:55.286Z)
Latitude0.00001°
Longitude161.96305°
Altitude547.768 km
Speed7.589 km/s
True Right ascension22h 14m 03s
True Declination0° 00' 00"
Sunlit
Object was in daylight at TLE epoch
Visualization TLE readout
Latitude-5.56605°
Longitude-17.88475°
Altitude549.102 km
Speed7.588 km/s
Apparent Right ascension11h 46m 55s
Apparent Declination-24° 25' 59"
Sunlit
Object is in daylight
Visualization observer readout
Local Sidereal Time02:00:46
Azimuth71.282° E
Elevation-57.989°
Doppler factor1
Orbital elements
Apogee altitude548.519 km
Perigee altitude546.294 km
Semi-major axis6,925.544 km
Eccentricity0.0001606
Inclination53.0551°
RAAN333.5131°
Arg. of periapsis77.2634°
True anomaly282.83556°
Mean anomaly282.8535°
Eccentric anomaly282.84453°
Mean motion3.76584 °/min
BSTAR0.0015485
Orbital period95.6 mins
Loading maneuver chart data...

STARLINK-1454 Visibility forecast

Observer location: undefined°, undefined

Span
Click to sort rows by Start time (UTC) header in descending order
Start Az.
Max El. time (UTC)
Max El. Az.
Max El.
End time (UTC)
End Az.
4 mins2024-12-05 05:08:26.332Z315.334° NNW2024-12-05 05:10:26.332Z344.859° N14.001°2024-12-05 05:12:26.332Z16.592° NNE
6 mins2024-12-05 08:29:26.332Z330.393° NNW2024-12-05 08:32:26.332Z46.334° ENE31.541°2024-12-05 08:35:26.332Z99.207° ESE
5 mins2024-12-05 10:09:26.332Z276.527° WNW2024-12-05 10:11:26.332Z230.355° WSW27.564°2024-12-05 10:14:26.332Z170.847° S
6 mins2024-12-06 01:41:26.332Z203.079° SW2024-12-06 01:44:26.332Z127.427° SE36.228°2024-12-06 01:47:26.332Z64.179° ENE
6 mins2024-12-06 03:21:26.332Z279.65° WNW2024-12-06 03:24:26.332Z346.124° N25.715°2024-12-06 03:27:26.332Z33.471° NE
|